sat.trackr.live / text

‹ back to catalog

STARLINK-36913

NORAD 68031 · 2026-040S

PAYLOAD ACTIVE UNKNOWN

§ Identity

Operator
Country
US
Launch date
2026-03-01
Launch site
AFWTR
Launch vehicle
Mass (kg)
RCS (m²)

Purposes: comms

External: N2YO · Heavens-Above · Gunter

§ Orbital elements

Epoch: 2026-09-19T21:09:14.433120Z

Period
93.91 min
Inclination
97.2843°
Eccentricity
0.0001793
Mean motion
15.33458912 rev/d
Perigee alt
464.3 km
Apogee alt
466.7 km
Semi-major
6,843.6 km
B*
6.2346e-4
RAAN
210.2354°
Arg perigee
103.8067°
Mean anomaly
256.3375°
Rev number
3,122

§ Raw data

STARLINK-369131 68031U 26040S   26262.88141705  .00020116  00000+0  62346-3 0  99952 68031  97.2843 210.2354 0001793 103.8067 256.3375 15.33458912 31225

JSON: /api/v1/satellites/68031 · /tle

For live sub-satellite position, see the globe view (requires WebGL).

§ Visibility from observer

Set your observer location to see the next 7 days of passes ≥ 10°. The values pass through the URL so the page stays shareable.

No JS? Fill the form by hand. The geolocation button needs JavaScript.